Antwerp, Belgium

5:18 AM CET on February 23, 2017 (GMT +0100)
Deurne

Weather History for EBAW - March, 2013

Change the Weather History Date:

Monday, March 25, 2013

  Actual Average Record
Temperature  
Mean Temperature 34 °F -  
Max Temperature 39 °F 56 °F 64 °F (2012)
Min Temperature 28 °F 40 °F 28 °F (2004)
Degree Days  
Heating Degree Days 32    
Moisture  
Dew Point 16 °F    
Average Humidity 48    
Maximum Humidity 59    
Minimum Humidity 27    
Precipitation  
Precipitation 0.00 in - - ()
Sea Level Pressure  
Sea Level Pressure 29.92 in    
Wind  
Wind Speed 13 mph ()    
Max Wind Speed 18 mph    
Max Gust Speed 28 mph    
Visibility 19.0 miles    
Events      
Averages and records for this station are not official NWS values.
T = Trace of Precipitation, MM = Missing Value Source: Averaged Metar Reports

Daily Weather History Graph

Daily Weather History Graph

Search for Another Location

Airport or City:

Trip Planner

Search our weather history database for the weather conditions in past years. The results will help you decide how hot, cold, wet, or windy it might be!

Date:

Astronomy

Mar. 25, 2013 Rise Set
Actual Time 6:33 AM CET 7:03 PM CET
Civil Twilight 6:00 AM CET 7:36 PM CET
Nautical Twilight 5:20 AM CET 8:16 PM CET
Astronomical Twilight 4:39 AM CET 8:58 PM CET
Moon 5:10 PM CET (3/25) 5:19 AM CET (3/25)
Length of Visible Light 13h 36m
Length of Day
12h 30m
Waxing Gibbous, 95% of the Moon is Illuminated
Mar 25
Waxing Gibbous
Mar 27
Full
Apr 3
Last Quarter
Apr 10
New
Apr 18
First Quarter

Hourly Weather History & Observations

Time (CET) Temp. Windchill Dew Point Humidity Pressure Visibility Wind Dir Wind Speed Gust Speed Precip Events Conditions
12:20 AM 32.0 °F 21.2 °F 12.2 °F 44% 29.95 in - East 16.1 mph - N/A   Clear
12:50 AM 32.0 °F 22.1 °F 14.0 °F 48% 29.95 in - East 13.8 mph - N/A   Clear
1:00 AM 31 °F - 13 °F 34% 29.95 in 28 mi East 13.4 mph - -   Overcast
1:20 AM 32.0 °F 21.6 °F 12.2 °F 44% 29.95 in - ENE 15.0 mph - N/A   Clear
1:50 AM 32.0 °F 22.1 °F 12.2 °F 44% 29.92 in - ENE 13.8 mph - N/A   Clear
2:20 AM 30.2 °F 20.8 °F 14.0 °F 51% 29.95 in - ENE 11.5 mph - N/A   Clear
2:50 AM 30.2 °F 20.2 °F 14.0 °F 51% 29.92 in - ENE 12.7 mph - N/A   Clear
3:20 AM 30.2 °F 20.2 °F 14.0 °F 51% 29.92 in - ENE 12.7 mph - N/A   Clear
3:50 AM 30.2 °F 19.8 °F 14.0 °F 51% 29.92 in - ENE 13.8 mph - N/A   Clear
4:00 AM 30 °F - 14 °F 37% 29.94 in 25 mi ENE 13.4 mph - -   Overcast
4:20 AM 30.2 °F 20.8 °F 14.0 °F 51% 29.92 in - ENE 11.5 mph - N/A   Clear
4:50 AM 30.2 °F 20.8 °F 14.0 °F 51% 29.92 in - ENE 11.5 mph - N/A   Clear
5:20 AM 30.2 °F 20.2 °F 14.0 °F 51% 29.92 in - ENE 12.7 mph - N/A   Clear
5:50 AM 28.4 °F 17.5 °F 15.8 °F 59% 29.92 in - ENE 13.8 mph - N/A   Clear
6:20 AM 28.4 °F 18.0 °F 15.8 °F 59% 29.95 in - ENE 12.7 mph - N/A   Clear
6:50 AM 28.4 °F 17.5 °F 15.8 °F 59% 29.95 in - ENE 13.8 mph - N/A   Clear
7:00 AM 29 °F - 16 °F 45% 29.96 in 22 mi ENE 13.4 mph - -   Mostly Cloudy
7:20 AM 28.4 °F 17.5 °F 15.8 °F 59% 29.95 in - ENE 13.8 mph - N/A   Clear
7:50 AM 28.4 °F 16.6 °F 15.8 °F 59% 29.95 in - ENE 16.1 mph - N/A   Clear
8:20 AM 28.4 °F 17.0 °F 15.8 °F 59% 29.95 in - ENE 15.0 mph - N/A   Clear
8:50 AM 28.4 °F 16.6 °F 15.8 °F 59% 29.95 in - East 16.1 mph - N/A   Clear
9:20 AM 28.4 °F 16.2 °F 15.8 °F 59% 29.95 in - East 17.3 mph - N/A   Clear
9:50 AM 30.2 °F 18.9 °F 15.8 °F 55% 29.95 in - ENE 16.1 mph - N/A   Clear
10:00 AM 29 °F - 16 °F 44% 29.96 in 22 mi ENE 15.7 mph - -   Scattered Clouds
10:20 AM 30.2 °F 18.9 °F 15.8 °F 55% 29.95 in - East 16.1 mph - N/A   Clear
10:50 AM 30.2 °F 18.5 °F 15.8 °F 55% 29.95 in - East 17.3 mph - N/A   Clear
11:20 AM 30.2 °F 18.9 °F 15.8 °F 55% 29.95 in - ENE 16.1 mph - N/A   Clear
11:50 AM 32.0 °F 21.6 °F 15.8 °F 51% 29.92 in - ENE 15.0 mph - N/A   Clear
12:20 PM 32.0 °F 20.8 °F 15.8 °F 51% 29.92 in - ENE 17.3 mph - N/A   Clear
12:50 PM 33.8 °F 23.5 °F 17.6 °F 52% 29.92 in - East 16.1 mph - N/A   Clear
1:00 PM 34 °F - 17 °F 37% 29.93 in 22 mi East 15.7 mph - -   Mostly Cloudy
1:20 PM 35.6 °F 26.2 °F 17.6 °F 48% 29.92 in - East 15.0 mph - N/A   Clear
1:50 PM 35.6 °F 26.2 °F 19.4 °F 52% 29.89 in - East 15.0 mph - N/A   Clear
2:20 PM 37.4 °F 28.2 °F 15.8 °F 41% 29.89 in - ENE 16.1 mph 27.6 mph N/A   Clear
2:50 PM 39.2 °F 29.8 °F 17.6 °F 42% 29.89 in - East 18.4 mph - N/A   Clear
3:20 PM 37.4 °F 28.9 °F 15.8 °F 41% 29.89 in - East 13.8 mph - N/A   Clear
3:50 PM 37.4 °F 29.3 °F 15.8 °F 41% 29.89 in - ENE 12.7 mph - N/A   Clear
4:00 PM 38 °F - 16 °F 27% 29.90 in 22 mi ENE 13.4 mph - -   Mostly Cloudy
4:20 PM 37.4 °F 28.2 °F 17.6 °F 45% 29.89 in - East 16.1 mph - N/A   Clear
4:50 PM 37.4 °F 28.2 °F 17.6 °F 45% 29.86 in - East 16.1 mph - N/A   Clear
5:20 PM 39.2 °F 30.2 °F 15.8 °F 39% 29.86 in - ENE 17.3 mph - N/A   Clear
5:50 PM 37.4 °F 29.3 °F 15.8 °F 41% 29.89 in - East 12.7 mph - N/A   Clear
6:20 PM 37.4 °F 29.3 °F 17.6 °F 45% 29.89 in - East 12.7 mph - N/A   Clear
6:50 PM 35.6 °F 26.2 °F 17.6 °F 48% 29.89 in - ENE 15.0 mph - N/A   Clear
7:00 PM 36 °F - 17 °F 32% 29.90 in 19 mi ENE 15.7 mph - -   Mostly Cloudy
7:20 PM 35.6 °F 26.6 °F 15.8 °F 44% 29.89 in - ENE 13.8 mph - N/A   Clear
7:50 PM 35.6 °F 26.2 °F 15.8 °F 44% 29.89 in - ENE 15.0 mph - N/A   Clear
8:20 PM 35.6 °F 25.5 °F 15.8 °F 44% 29.89 in - ENE 17.3 mph - N/A   Clear
8:50 PM 35.6 °F 26.6 °F 15.8 °F 44% 29.89 in - ENE 13.8 mph - N/A   Clear
9:20 PM 33.8 °F 23.5 °F 15.8 °F 48% 29.89 in - ENE 16.1 mph - N/A   Clear
9:50 PM 33.8 °F 23.9 °F 15.8 °F 48% 29.89 in - ENE 15.0 mph - N/A   Clear
10:00 PM 34 °F - 16 °F 35% 29.92 in 19 mi ENE 15.7 mph - -   Mostly Cloudy
10:20 PM 33.8 °F 24.3 °F 15.8 °F 48% 29.92 in - ENE 13.8 mph - N/A   Clear
10:50 PM 33.8 °F 24.3 °F 15.8 °F 48% 29.92 in - ENE 13.8 mph - N/A   Clear
11:20 PM 33.8 °F 24.3 °F 15.8 °F 48% 29.92 in - ENE 13.8 mph - N/A   Clear
11:50 PM 33.8 °F 24.8 °F 17.6 °F 52% 29.92 in - East 12.7 mph - N/A   Clear